User: anonymous   Login
Location: Caltech
(34.1382°N, 118.1253°W)
Time: 13:54:33
(UTC-07:00)
Language:

IDEFIX/ARIANE 42P - Orbit

View from above orbital plane
View from above orbital plane
View from above satellite
View from above satellite

Ground track
Ground track

The orbit data is extracted from the following two-line orbital elements,

1 27422U 02021B   15085.52558985  .00000166  00000-0  81474-4 0  9999
2 27422 098.2660 119.0649 0013505 125.6373 234.6070 14.29152669670450
Epoch (UTC): 26 March 2015 12:36:50
Eccentricity: 0.0013505
inclination: 98.2660°
perigee height: 785 km
apogee height: 804 km
right ascension of ascending node: 119.0649°
argument of perigee: 125.6373°
revolutions per day: 14.29152669
mean anomaly at epoch: 234.6070°
orbit number at epoch: 67045

The dashed part of the orbit path shows where the satellite is in the earth's shadow,  

DLR